[[{"header":{"parameterUnit":"m.s-1","parameterCategory":1,"la1":30.2991,"la2":30.254,"lo1":-89.0895,"lo2":-89.0444,"dx":0.0017,"dy":0.0017,"nx":28,"ny":28,"refTime":"2023-02-06T15:00:00:Z","depth":0,"parameterNumber":2,"parameterNumberName":"U-component_of_WINDS"},"data":[0,0,0,0,0,0,0,0,0,0,0,0,0,0,0,0,0,0,0,0,0,0,0,0,0,0,0,0,0,0,0,0,0,0,0,0,0,0,0,0,0,0,0,0,0,0,0,0,0,0,0,0,0,0,0,0,0,0,-2.1562,-2.1561,0,-2.1479,-2.1478,-2.1477,-2.1408,-2.1407,-2.1406,-2.1406,-2.1321,-2.132,-2.1318,0,0,0,0,0,0,0,0,0,0,0,0,0,-2.1665,-2.1663,-2.1562,-2.1561,-2.156,-2.1479,-2.1478,-2.1477,-2.1408,-2.1407,-2.1406,-2.1405,-2.1322,-2.132,-2.1318,0,0,0,0,0,0,0,0,0,0,0,0,0,-2.1605,-2.1663,-2.1562,-2.1516,-2.1511,-2.1479,-2.1478,-2.1476,-2.1408,-2.1407,-2.1406,-2.1405,-2.1323,-2.132,-2.1318,-2.1326,0,0,-2.1311,-2.131,0,0,0,0,0,0,0,0,-2.1608,-2.1601,-2.1524,-2.1519,-2.1513,-2.1453,-2.1483,-2.1426,-2.1408,-2.1447,-2.1406,-2.1404,-2.1366,-2.136,-2.1347,-2.1322,-2.1318,-2.1311,-2.1309,-2.1308,-2.1308,0,0,0,0,0,0,0,-2.1613,-2.1604,-2.1529,-2.1523,-2.1516,-2.15,-2.1491,-2.1472,-2.1414,-2.1444,-2.1439,-2.143,-2.1363,-2.1349,-2.1344,-2.1317,-2.1311,-2.1309,-2.1307,-2.1306,-2.1299,-2.13,0,0,0,0,0,0,-2.1624,-2.1608,-2.1532,-2.1527,-2.1559,-2.15,-2.1489,-2.1473,-2.1414,-2.1404,-2.1431,-2.1427,-2.1354,-2.1347,-2.1341,-2.1349,-2.1308,-2.1306,-2.1305,-2.1297,-2.1299,-2.13,0,0,0,0,0,0,-2.1626,-2.1617,-2.1535,-2.1566,-2.1554,-2.1499,-2.1482,-2.1472,-2.1458,-2.1404,-2.1394,-2.1427,-2.1353,-2.1344,-2.1331,-2.1345,-2.1305,-2.1303,-2.1296,-2.1298,-2.13,-2.1363,0,0,0,0,0,0,-2.1629,-2.1619,-2.162,-2.1567,-2.1553,-2.1525,-2.1483,-2.1471,-2.1454,-2.1448,-2.1398,-2.1388,-2.1351,-2.1335,-2.1329,-2.1341,-2.1301,-2.1295,-2.1297,-2.1299,-2.136,-2.1367,-2.1373,0,0,0,0,0,-2.1633,-2.164,-2.162,-2.1611,-2.1553,-2.1526,-2.1518,-2.1475,-2.1456,-2.1458,-2.1423,-2.139,-2.1345,-2.1334,-2.1327,-2.1338,-2.1293,-2.1296,-2.1299,-2.1357,-2.1366,-2.1373,0,0,0,0,0,0,-2.1696,-2.1632,-2.1609,-2.1599,-2.1569,-2.1515,-2.1515,-2.1485,-2.146,-2.1455,-2.1403,-2.1392,-2.1386,-2.136,-2.135,-2.1345,-2.1315,-2.1316,-2.1361,-2.1369,-2.1376,-2.1383,-2.1299,0,0,0,0,0,-2.1709,-2.1692,-2.1637,-2.1634,-2.162,-2.1571,-2.1557,-2.1527,-2.1493,-2.148,-2.1444,-2.1413,-2.1392,-2.1379,-2.1357,-2.1356,-2.1346,-2.1361,-2.1368,-2.1374,-2.1375,-2.1377,-2.1384,-2.1309,-2.1309,-2.1309,0,0,-2.1735,-2.1698,-2.169,-2.1646,-2.1618,-2.1603,-2.156,-2.1544,-2.1533,-2.1477,-2.1463,-2.1436,-2.1399,-2.1393,-2.1388,-2.1372,-2.1394,-2.1377,-2.1382,-2.1381,-2.138,-2.1387,-2.1394,-2.1311,-2.131,-2.131,0,0,-2.1774,-2.1744,-2.1739,-2.1714,-2.1674,-2.1641,-2.1641,-2.1592,-2.1572,-2.1557,-2.1516,-2.1503,-2.1467,-2.1443,-2.1426,-2.1462,-2.1431,-2.1456,-2.1491,-2.1493,-2.1499,-2.1504,-2.1519,-2.1525,-2.1458,-2.1458,-2.1458,0,-2.1812,-2.1786,-2.1741,-2.1729,-2.1712,-2.1662,-2.1658,-2.1636,-2.159,-2.1581,-2.1563,-2.152,-2.149,-2.148,-2.1489,-2.1476,-2.1475,-2.1461,-2.1502,-2.1506,-2.151,-2.1524,-2.153,-2.1461,-2.1461,-2.1461,-2.146,0,-2.1835,-2.1819,-2.182,-2.1779,-2.1762,-2.1754,-2.171,-2.1698,-2.1671,-2.1642,-2.1629,-2.1593,-2.1564,-2.1559,-2.1531,-2.1546,-2.1537,-2.1511,-2.148,-2.1522,-2.1534,-2.1539,-2.1466,-2.1465,-2.1464,-2.1463,0,0,-2.1909,-2.1846,-2.1848,-2.183,-2.1784,-2.1771,-2.1763,-2.1735,-2.1728,-2.1699,-2.1692,-2.1665,-2.1643,-2.1624,-2.1593,-2.1595,-2.1629,-2.1569,-2.1568,-2.1583,-2.1646,-2.1667,-2.1674,-2.1609,-2.161,-2.161,-2.165,0,-2.1943,-2.1925,-2.1886,-2.188,-2.1866,-2.1821,-2.1814,-2.1786,-2.176,-2.1745,-2.1715,-2.1698,-2.1668,-2.1657,-2.1656,-2.1625,-2.1641,-2.1621,-2.1604,-2.1604,-2.1616,-2.168,-2.17,-2.174,-2.1655,-2.1655,-2.1656,0,-2.1978,-2.1955,-2.1948,-2.1907,-2.19,-2.1894,-2.1868,-2.1854,-2.1823,-2.1803,-2.1785,-2.1752,-2.1743,-2.1715,-2.1703,-2.1691,-2.1682,-2.1666,-2.1667,-2.1664,-2.1633,-2.168,-2.1751,-2.1757,-2.1662,-2.1662,-2.1661,0,-2.2036,-2.2002,-2.1995,-2.1981,-2.1932,-2.193,-2.191,-2.1877,-2.1865,-2.1842,-2.1834,-2.181,-2.1798,-2.1781,-2.1744,-2.1726,-2.1738,-2.1706,-2.1724,-2.1725,-2.1728,-2.1729,-2.18,-2.1721,-2.1721,-2.172,-2.172,0,-2.2078,-2.2076,-2.2021,-2.2016,-2.2015,-2.1971,-2.1971,-2.1946,-2.1919,-2.1911,-2.187,-2.1863,-2.1814,-2.1802,-2.1773,-2.177,-2.1764,-2.175,-2.1742,-2.1754,-2.1756,-2.1748,-2.1744,-2.1722,-2.1722,-2.1721,-2.1721,0,-2.2141,-2.2104,-2.2093,-2.2049,-2.2038,-2.2039,-2.2002,-2.1997,-2.197,-2.196,-2.1955,-2.1912,-2.1896,-2.1858,-2.1831,-2.1812,-2.1818,-2.1803,-2.1828,-2.1824,-2.1845,-2.1844,-2.1914,-2.1922,-2.1837,-2.1838,-2.1838,0,-2.2171,-2.2169,-2.2126,-2.2118,-2.2099,-2.2086,-2.2074,-2.2032,-2.2021,-2.1988,-2.1988,-2.197,-2.1952,-2.193,-2.1897,-2.1878,-2.1864,-2.189,-2.186,-2.1874,-2.1867,-2.1868,-2.1869,-2.1896,-2.1897,-2.1898,-2.1899,0,-2.2228,-2.2211,-2.2194,-2.2173,-2.2159,-2.214,-2.2118,-2.2114,-2.2068,-2.2058,-2.2042,-2.2029,-2.2004,-2.1988,-2.1964,-2.1944,-2.1915,-2.1909,-2.1912,-2.1925,-2.1941,-2.1935,-2.1848,-2.1907,-2.1906,-2.1906,-2.1905,-2.1905,-2.2276,-2.2274,-2.2245,-2.2229,-2.2209,-2.2191,-2.2186,-2.2158,-2.2145,-2.2121,-2.2098,-2.2086,-2.2058,-2.2024,-2.2007,-2.1998,-2.1982,-2.1987,-2.1988,-2.199,-2.1997,-2.1942,-2.1993,-2.1993,-2.1993,-2.1993,-2.1992,0,-2.2333,-2.2313,-2.2299,-2.2272,-2.226,-2.2234,-2.221,-2.2203,-2.2193,-2.217,-2.2155,-2.2139,-2.2124,-2.2091,-2.2073,-2.2072,-2.2059,-2.2069,-2.2069,-2.2066,-2.2011,-2.201,-2.2081,-2.2081,-2.2081,-2.2081,-2.2081,-2.2081,-2.2362,-2.2358,-2.2338,-2.2325,-2.2304,-2.2293,-2.2282,-2.2266,-2.2248,-2.2232,-2.222,-2.2199,-2.2173,-2.2153,-2.2139,-2.213,-2.2126,-2.2142,-2.2129,-2.2078,-2.2069,-2.2061,-2.2061,-2.2141,-2.2141,-2.2185,-2.2186,-2.2186]},{"header":{"parameterUnit":"m.s-1","parameterCategory":1,"la1":30.2991,"la2":30.254,"lo1":-89.0895,"lo2":-89.0444,"dx":0.0017,"dy":0.0017,"nx":28,"ny":28,"refTime":"2023-02-06T15:00:00:Z","depth":0,"parameterNumber":3,"parameterNumberName":"V-component_of_WINDS"},"data":[0,0,0,0,0,0,0,0,0,0,0,0,0,0,0,0,0,0,0,0,0,0,0,0,0,0,0,0,0,0,0,0,0,0,0,0,0,0,0,0,0,0,0,0,0,0,0,0,0,0,0,0,0,0,0,0,0,0,1.5014,1.5013,0,1.4987,1.4987,1.4986,1.5045,1.5047,1.5049,1.5051,1.5017,1.5015,1.5012,0,0,0,0,0,0,0,0,0,0,0,0,0,1.5111,1.5109,1.5014,1.5013,1.5013,1.4987,1.4987,1.4986,1.5045,1.5047,1.505,1.5052,1.5018,1.5015,1.5012,0,0,0,0,0,0,0,0,0,0,0,0,0,1.5074,1.5108,1.5014,1.5039,1.5041,1.4987,1.4987,1.4986,1.5045,1.5047,1.505,1.5053,1.5019,1.5015,1.5011,1.4929,0,0,1.4999,1.4997,0,0,0,0,0,0,0,0,1.5076,1.5071,1.5036,1.5038,1.504,1.5023,1.5009,1.4967,1.5044,1.5043,1.5051,1.5054,1.5016,1.5013,1.5001,1.4928,1.4926,1.4999,1.4996,1.4995,1.4994,0,0,0,0,0,0,0,1.5079,1.5072,1.5003,1.5035,1.5038,1.5051,1.5049,1.5001,1.5014,1.5043,1.5048,1.5044,1.5018,1.5005,1.5001,1.4926,1.4999,1.4995,1.4993,1.4991,1.4783,1.478,0,0,0,0,0,0,1.5079,1.5074,1.5004,1.5002,1.5066,1.5046,1.5044,1.5025,1.5015,1.5016,1.5042,1.5047,1.501,1.5006,1.5,1.4903,1.4995,1.4991,1.4989,1.4786,1.4782,1.4779,0,0,0,0,0,0,1.5081,1.5072,1.5005,1.5039,1.5032,1.5042,1.502,1.5023,1.501,1.5013,1.5015,1.5026,1.5013,1.5006,1.4947,1.4902,1.4989,1.4985,1.479,1.4785,1.4781,1.4708,0,0,0,0,0,0,1.5083,1.5072,1.5042,1.5038,1.503,1.4953,1.5017,1.502,1.5004,1.5011,1.4999,1.5,1.5014,1.4952,1.4943,1.4898,1.4982,1.4794,1.4788,1.4782,1.4714,1.4701,1.469,0,0,0,0,0,1.5087,1.5021,1.5041,1.5032,1.4993,1.4951,1.4946,1.4965,1.5,1.4969,1.4971,1.5001,1.4909,1.4946,1.4935,1.4889,1.4797,1.4789,1.4783,1.4719,1.4704,1.469,0,0,0,0,0,0,1.5018,1.5021,1.5042,1.4975,1.4962,1.4961,1.4922,1.4947,1.4923,1.493,1.4953,1.495,1.4886,1.4882,1.4923,1.4809,1.4859,1.4849,1.4814,1.4799,1.4787,1.4789,1.4979,0,0,0,0,0,1.4995,1.4963,1.4967,1.4906,1.4899,1.4912,1.4894,1.4911,1.4898,1.4892,1.489,1.4875,1.4843,1.4821,1.4792,1.4714,1.4712,1.4677,1.4665,1.4655,1.4646,1.4605,1.4589,1.4756,1.4756,1.4756,0,0,1.4947,1.4945,1.4923,1.4893,1.4885,1.4849,1.4907,1.4867,1.484,1.4885,1.483,1.4828,1.4813,1.4744,1.4714,1.4738,1.46,1.4646,1.4639,1.4635,1.4596,1.458,1.4566,1.4751,1.4752,1.4753,0,0,1.4841,1.4837,1.4786,1.4778,1.4767,1.4776,1.4763,1.4758,1.4759,1.4705,1.4739,1.4706,1.4651,1.4638,1.4625,1.4516,1.4541,1.4505,1.4442,1.4401,1.4388,1.4376,1.4337,1.4322,1.4497,1.4496,1.4496,0,1.4782,1.4731,1.4756,1.4714,1.4699,1.4742,1.469,1.468,1.4658,1.4646,1.4675,1.4607,1.4599,1.4529,1.4502,1.449,1.4476,1.4506,1.4388,1.4377,1.4366,1.4329,1.4314,1.4492,1.4493,1.4493,1.4494,0,1.4659,1.4624,1.4584,1.4565,1.4546,1.4498,1.4515,1.4492,1.451,1.4515,1.4459,1.4452,1.4422,1.4407,1.4423,1.4338,1.4354,1.4385,1.4435,1.4346,1.4311,1.4296,1.4486,1.4487,1.4489,1.449,0,0,1.4507,1.4504,1.4489,1.4481,1.4472,1.4444,1.4399,1.4372,1.4351,1.4335,1.4297,1.425,1.4279,1.4263,1.4279,1.4243,1.4156,1.4279,1.4279,1.4255,1.4062,1.4037,1.402,1.4174,1.4172,1.4169,1.4063,0,1.4403,1.4327,1.4348,1.4271,1.4238,1.4278,1.4239,1.4228,1.4232,1.4203,1.4207,1.4173,1.4215,1.4206,1.4172,1.4174,1.4117,1.4182,1.4137,1.4135,1.4138,1.4002,1.3977,1.3876,1.4049,1.4047,1.4045,0,1.427,1.4251,1.4171,1.4169,1.4156,1.412,1.4097,1.4069,1.4058,1.4063,1.4047,1.4069,1.4023,1.4075,1.401,1.4054,1.4037,1.4035,1.4031,1.4027,1.4084,1.3993,1.3844,1.3829,1.4024,1.4026,1.4027,0,1.4166,1.4121,1.4068,1.406,1.4055,1.4029,1.4025,1.4017,1.4,1.3979,1.3968,1.3941,1.3926,1.3904,1.3919,1.3955,1.3852,1.3905,1.3853,1.3853,1.3829,1.383,1.3674,1.3819,1.3819,1.382,1.382,0,1.4046,1.3995,1.4021,1.3988,1.3933,1.3957,1.3901,1.3902,1.3894,1.3861,1.3894,1.3861,1.3883,1.3852,1.3863,1.3808,1.3801,1.3802,1.3806,1.3799,1.3798,1.3787,1.3794,1.3816,1.3817,1.3817,1.3818,0,1.392,1.3936,1.388,1.3882,1.3881,1.384,1.384,1.3808,1.3816,1.3773,1.3765,1.3775,1.374,1.3753,1.3715,1.3723,1.3652,1.3665,1.3656,1.3659,1.3607,1.3611,1.3438,1.3416,1.3576,1.3574,1.3573,0,1.3842,1.3805,1.3803,1.3784,1.3779,1.3748,1.3731,1.3754,1.3734,1.3719,1.3689,1.3658,1.3634,1.3576,1.3579,1.355,1.3562,1.3503,1.3558,1.3552,1.356,1.3562,1.3557,1.3492,1.349,1.3488,1.3487,0,1.3701,1.3711,1.3687,1.3665,1.3644,1.3627,1.3613,1.3595,1.3617,1.3594,1.356,1.3542,1.3504,1.3472,1.3447,1.3441,1.3467,1.347,1.3457,1.3449,1.3445,1.3446,1.3626,1.3474,1.3475,1.3476,1.3477,1.3477,1.3597,1.3565,1.3559,1.3531,1.3523,1.3509,1.348,1.3485,1.3458,1.3431,1.3445,1.3406,1.3395,1.3364,1.3355,1.3323,1.3346,1.3326,1.3321,1.3315,1.3308,1.3451,1.3318,1.3319,1.3319,1.332,1.332,0,1.3457,1.3456,1.3429,1.341,1.3387,1.3416,1.3402,1.338,1.3346,1.3335,1.3311,1.3272,1.3241,1.3243,1.3214,1.3188,1.3199,1.318,1.3181,1.3179,1.329,1.3305,1.3171,1.3171,1.3171,1.3171,1.3171,1.3171,1.3381,1.333,1.3339,1.3284,1.3282,1.3246,1.3235,1.3222,1.3213,1.3169,1.3144,1.3147,1.314,1.3111,1.3084,1.3085,1.3072,1.3048,1.3053,1.3157,1.3171,1.3185,1.3199,1.3046,1.3045,1.2945,1.2944,1.2943]}]]